Index of /20260428/WXO-DD/model_caps/3km/00/023
Name Last modified Size Description
Parent Directory -
20260428T00Z_MSC_CAPS_AbsoluteVorticity_IsbL-0250_RLatLon0.03_PT023H.grib2 2026-04-28 06:12 1.0M
20260428T00Z_MSC_CAPS_AbsoluteVorticity_IsbL-0500_RLatLon0.03_PT023H.grib2 2026-04-28 06:12 1.1M
20260428T00Z_MSC_CAPS_AbsoluteVorticity_IsbL-0700_RLatLon0.03_PT023H.grib2 2026-04-28 06:12 1.0M
20260428T00Z_MSC_CAPS_AbsoluteVorticity_IsbL-0850_RLatLon0.03_PT023H.grib2 2026-04-28 06:12 1.2M
20260428T00Z_MSC_CAPS_AbsoluteVorticity_IsbL-1000_RLatLon0.03_PT023H.grib2 2026-04-28 06:12 1.3M
20260428T00Z_MSC_CAPS_AirDensity_AGL-120m_RLatLon0.03_PT023H.grib2 2026-04-28 06:12 1.4M
20260428T00Z_MSC_CAPS_AirDensity_AGL-40m_RLatLon0.03_PT023H.grib2 2026-04-28 06:12 1.4M
20260428T00Z_MSC_CAPS_AirDensity_AGL-80m_RLatLon0.03_PT023H.grib2 2026-04-28 06:12 1.4M
20260428T00Z_MSC_CAPS_AirTemp_AGL-120m_RLatLon0.03_PT023H.grib2 2026-04-28 06:12 1.8M
20260428T00Z_MSC_CAPS_AirTemp_AGL-2m_RLatLon0.03_PT023H.grib2 2026-04-28 06:12 2.1M
20260428T00Z_MSC_CAPS_AirTemp_AGL-40m_RLatLon0.03_PT023H.grib2 2026-04-28 06:12 1.9M
20260428T00Z_MSC_CAPS_AirTemp_AGL-80m_RLatLon0.03_PT023H.grib2 2026-04-28 06:12 1.8M
20260428T00Z_MSC_CAPS_AirTemp_IsbL-0050_RLatLon0.03_PT023H.grib2 2026-04-28 06:12 696K
20260428T00Z_MSC_CAPS_AirTemp_IsbL-0100_RLatLon0.03_PT023H.grib2 2026-04-28 06:12 962K
20260428T00Z_MSC_CAPS_AirTemp_IsbL-0150_RLatLon0.03_PT023H.grib2 2026-04-28 06:12 747K
20260428T00Z_MSC_CAPS_AirTemp_IsbL-0175_RLatLon0.03_PT023H.grib2 2026-04-28 06:12 763K
20260428T00Z_MSC_CAPS_AirTemp_IsbL-0200_RLatLon0.03_PT023H.grib2 2026-04-28 06:12 781K
20260428T00Z_MSC_CAPS_AirTemp_IsbL-0225_RLatLon0.03_PT023H.grib2 2026-04-28 06:12 782K
20260428T00Z_MSC_CAPS_AirTemp_IsbL-0250_RLatLon0.03_PT023H.grib2 2026-04-28 06:12 1.0M
20260428T00Z_MSC_CAPS_AirTemp_IsbL-0275_RLatLon0.03_PT023H.grib2 2026-04-28 06:12 1.0M
20260428T00Z_MSC_CAPS_AirTemp_IsbL-0300_RLatLon0.03_PT023H.grib2 2026-04-28 06:12 1.0M
20260428T00Z_MSC_CAPS_AirTemp_IsbL-0350_RLatLon0.03_PT023H.grib2 2026-04-28 06:12 1.0M
20260428T00Z_MSC_CAPS_AirTemp_IsbL-0400_RLatLon0.03_PT023H.grib2 2026-04-28 06:12 748K
20260428T00Z_MSC_CAPS_AirTemp_IsbL-0450_RLatLon0.03_PT023H.grib2 2026-04-28 06:12 763K
20260428T00Z_MSC_CAPS_AirTemp_IsbL-0500_RLatLon0.03_PT023H.grib2 2026-04-28 06:12 780K
20260428T00Z_MSC_CAPS_AirTemp_IsbL-0550_RLatLon0.03_PT023H.grib2 2026-04-28 06:12 792K
20260428T00Z_MSC_CAPS_AirTemp_IsbL-0600_RLatLon0.03_PT023H.grib2 2026-04-28 06:12 805K
20260428T00Z_MSC_CAPS_AirTemp_IsbL-0650_RLatLon0.03_PT023H.grib2 2026-04-28 06:12 828K
20260428T00Z_MSC_CAPS_AirTemp_IsbL-0700_RLatLon0.03_PT023H.grib2 2026-04-28 06:12 856K
20260428T00Z_MSC_CAPS_AirTemp_IsbL-0750_RLatLon0.03_PT023H.grib2 2026-04-28 06:12 1.0M
20260428T00Z_MSC_CAPS_AirTemp_IsbL-0800_RLatLon0.03_PT023H.grib2 2026-04-28 06:12 1.0M
20260428T00Z_MSC_CAPS_AirTemp_IsbL-0850_RLatLon0.03_PT023H.grib2 2026-04-28 06:12 1.1M
20260428T00Z_MSC_CAPS_AirTemp_IsbL-0875_RLatLon0.03_PT023H.grib2 2026-04-28 06:12 1.1M
20260428T00Z_MSC_CAPS_AirTemp_IsbL-0900_RLatLon0.03_PT023H.grib2 2026-04-28 06:12 1.1M
20260428T00Z_MSC_CAPS_AirTemp_IsbL-0925_RLatLon0.03_PT023H.grib2 2026-04-28 06:12 1.1M
20260428T00Z_MSC_CAPS_AirTemp_IsbL-0950_RLatLon0.03_PT023H.grib2 2026-04-28 06:12 1.2M
20260428T00Z_MSC_CAPS_AirTemp_IsbL-0970_RLatLon0.03_PT023H.grib2 2026-04-28 06:12 1.1M
20260428T00Z_MSC_CAPS_AirTemp_IsbL-0985_RLatLon0.03_PT023H.grib2 2026-04-28 06:12 1.1M
20260428T00Z_MSC_CAPS_AirTemp_IsbL-1000_RLatLon0.03_PT023H.grib2 2026-04-28 06:12 1.0M
20260428T00Z_MSC_CAPS_AirTemp_IsbL-1015_RLatLon0.03_PT023H.grib2 2026-04-28 06:12 1.1M
20260428T00Z_MSC_CAPS_Albedo_Sfc_RLatLon0.03_PT023H.grib2 2026-04-28 06:12 2.7M
20260428T00Z_MSC_CAPS_CAPE_Sfc_RLatLon0.03_PT023H.grib2 2026-04-28 06:12 122K
20260428T00Z_MSC_CAPS_CloudWater_EAtm_RLatLon0.03_PT023H.grib2 2026-04-28 06:12 1.4M
20260428T00Z_MSC_CAPS_ConvectivePrecip-Accum_Sfc_RLatLon0.03_PT023H.grib2 2026-04-28 06:12 3.4M
20260428T00Z_MSC_CAPS_DewPointDepression_AGL-120m_RLatLon0.03_PT023H.grib2 2026-04-28 06:12 2.1M
20260428T00Z_MSC_CAPS_DewPointDepression_AGL-2m_RLatLon0.03_PT023H.grib2 2026-04-28 06:12 2.2M
20260428T00Z_MSC_CAPS_DewPointDepression_AGL-40m_RLatLon0.03_PT023H.grib2 2026-04-28 06:12 2.2M
20260428T00Z_MSC_CAPS_DewPointDepression_AGL-80m_RLatLon0.03_PT023H.grib2 2026-04-28 06:12 2.2M
20260428T00Z_MSC_CAPS_DewPointDepression_IsbL-0050_RLatLon0.03_PT023H.grib2 2026-04-28 06:12 193
20260428T00Z_MSC_CAPS_DewPointDepression_IsbL-0100_RLatLon0.03_PT023H.grib2 2026-04-28 06:12 130K
20260428T00Z_MSC_CAPS_DewPointDepression_IsbL-0150_RLatLon0.03_PT023H.grib2 2026-04-28 06:12 116K
20260428T00Z_MSC_CAPS_DewPointDepression_IsbL-0175_RLatLon0.03_PT023H.grib2 2026-04-28 06:12 189K
20260428T00Z_MSC_CAPS_DewPointDepression_IsbL-0200_RLatLon0.03_PT023H.grib2 2026-04-28 06:12 363K
20260428T00Z_MSC_CAPS_DewPointDepression_IsbL-0225_RLatLon0.03_PT023H.grib2 2026-04-28 06:12 664K
20260428T00Z_MSC_CAPS_DewPointDepression_IsbL-0250_RLatLon0.03_PT023H.grib2 2026-04-28 06:12 895K
20260428T00Z_MSC_CAPS_DewPointDepression_IsbL-0275_RLatLon0.03_PT023H.grib2 2026-04-28 06:12 1.0M
20260428T00Z_MSC_CAPS_DewPointDepression_IsbL-0300_RLatLon0.03_PT023H.grib2 2026-04-28 06:12 1.0M
20260428T00Z_MSC_CAPS_DewPointDepression_IsbL-0350_RLatLon0.03_PT023H.grib2 2026-04-28 06:12 1.1M
20260428T00Z_MSC_CAPS_DewPointDepression_IsbL-0400_RLatLon0.03_PT023H.grib2 2026-04-28 06:12 1.1M
20260428T00Z_MSC_CAPS_DewPointDepression_IsbL-0450_RLatLon0.03_PT023H.grib2 2026-04-28 06:12 1.1M
20260428T00Z_MSC_CAPS_DewPointDepression_IsbL-0500_RLatLon0.03_PT023H.grib2 2026-04-28 06:12 1.2M
20260428T00Z_MSC_CAPS_DewPointDepression_IsbL-0550_RLatLon0.03_PT023H.grib2 2026-04-28 06:12 1.2M
20260428T00Z_MSC_CAPS_DewPointDepression_IsbL-0600_RLatLon0.03_PT023H.grib2 2026-04-28 06:12 1.2M
20260428T00Z_MSC_CAPS_DewPointDepression_IsbL-0650_RLatLon0.03_PT023H.grib2 2026-04-28 06:12 1.3M
20260428T00Z_MSC_CAPS_DewPointDepression_IsbL-0700_RLatLon0.03_PT023H.grib2 2026-04-28 06:12 1.3M
20260428T00Z_MSC_CAPS_DewPointDepression_IsbL-0750_RLatLon0.03_PT023H.grib2 2026-04-28 06:12 1.3M
20260428T00Z_MSC_CAPS_DewPointDepression_IsbL-0800_RLatLon0.03_PT023H.grib2 2026-04-28 06:12 1.3M
20260428T00Z_MSC_CAPS_DewPointDepression_IsbL-0850_RLatLon0.03_PT023H.grib2 2026-04-28 06:12 1.4M
20260428T00Z_MSC_CAPS_DewPointDepression_IsbL-0875_RLatLon0.03_PT023H.grib2 2026-04-28 06:12 1.4M
20260428T00Z_MSC_CAPS_DewPointDepression_IsbL-0900_RLatLon0.03_PT023H.grib2 2026-04-28 06:12 1.4M
20260428T00Z_MSC_CAPS_DewPointDepression_IsbL-0925_RLatLon0.03_PT023H.grib2 2026-04-28 06:12 1.4M
20260428T00Z_MSC_CAPS_DewPointDepression_IsbL-0950_RLatLon0.03_PT023H.grib2 2026-04-28 06:12 1.4M
20260428T00Z_MSC_CAPS_DewPointDepression_IsbL-0970_RLatLon0.03_PT023H.grib2 2026-04-28 06:12 1.3M
20260428T00Z_MSC_CAPS_DewPointDepression_IsbL-0985_RLatLon0.03_PT023H.grib2 2026-04-28 06:12 1.3M
20260428T00Z_MSC_CAPS_DewPointDepression_IsbL-1000_RLatLon0.03_PT023H.grib2 2026-04-28 06:12 1.3M
20260428T00Z_MSC_CAPS_DewPointDepression_IsbL-1015_RLatLon0.03_PT023H.grib2 2026-04-28 06:12 1.3M
20260428T00Z_MSC_CAPS_DewPoint_AGL-120m_RLatLon0.03_PT023H.grib2 2026-04-28 06:12 3.7M
20260428T00Z_MSC_CAPS_DewPoint_AGL-2m_RLatLon0.03_PT023H.grib2 2026-04-28 06:12 2.1M
20260428T00Z_MSC_CAPS_DewPoint_AGL-40m_RLatLon0.03_PT023H.grib2 2026-04-28 06:12 3.8M
20260428T00Z_MSC_CAPS_DewPoint_AGL-80m_RLatLon0.03_PT023H.grib2 2026-04-28 06:12 3.7M
20260428T00Z_MSC_CAPS_DownwardLongwaveRadiationFlux-Accum_Sfc_RLatLon0.03_PT023H.grib2 2026-04-28 06:12 2.3M
20260428T00Z_MSC_CAPS_DownwardShortwaveRadiationFlux-Accum_NTAtm_RLatLon0.03_PT023H.grib2 2026-04-28 06:12 491K
20260428T00Z_MSC_CAPS_DownwardShortwaveRadiationFlux-Accum_Sfc_RLatLon0.03_PT023H.grib2 2026-04-28 06:12 3.1M
20260428T00Z_MSC_CAPS_FreezingRain-Accum_Sfc_RLatLon0.03_PT023H.grib2 2026-04-28 06:12 722K
20260428T00Z_MSC_CAPS_GeopotentialHeight_IsbL-0050_RLatLon0.03_PT023H.grib2 2026-04-28 06:12 647K
20260428T00Z_MSC_CAPS_GeopotentialHeight_IsbL-0100_RLatLon0.03_PT023H.grib2 2026-04-28 06:12 769K
20260428T00Z_MSC_CAPS_GeopotentialHeight_IsbL-0150_RLatLon0.03_PT023H.grib2 2026-04-28 06:12 723K
20260428T00Z_MSC_CAPS_GeopotentialHeight_IsbL-0175_RLatLon0.03_PT023H.grib2 2026-04-28 06:12 727K
20260428T00Z_MSC_CAPS_GeopotentialHeight_IsbL-0200_RLatLon0.03_PT023H.grib2 2026-04-28 06:12 738K
20260428T00Z_MSC_CAPS_GeopotentialHeight_IsbL-0225_RLatLon0.03_PT023H.grib2 2026-04-28 06:12 746K
20260428T00Z_MSC_CAPS_GeopotentialHeight_IsbL-0250_RLatLon0.03_PT023H.grib2 2026-04-28 06:12 756K
20260428T00Z_MSC_CAPS_GeopotentialHeight_IsbL-0275_RLatLon0.03_PT023H.grib2 2026-04-28 06:12 765K
20260428T00Z_MSC_CAPS_GeopotentialHeight_IsbL-0300_RLatLon0.03_PT023H.grib2 2026-04-28 06:12 771K
20260428T00Z_MSC_CAPS_GeopotentialHeight_IsbL-0350_RLatLon0.03_PT023H.grib2 2026-04-28 06:12 770K
20260428T00Z_MSC_CAPS_GeopotentialHeight_IsbL-0400_RLatLon0.03_PT023H.grib2 2026-04-28 06:12 766K
20260428T00Z_MSC_CAPS_GeopotentialHeight_IsbL-0450_RLatLon0.03_PT023H.grib2 2026-04-28 06:12 761K
20260428T00Z_MSC_CAPS_GeopotentialHeight_IsbL-0500_RLatLon0.03_PT023H.grib2 2026-04-28 06:12 755K
20260428T00Z_MSC_CAPS_GeopotentialHeight_IsbL-0550_RLatLon0.03_PT023H.grib2 2026-04-28 06:12 742K
20260428T00Z_MSC_CAPS_GeopotentialHeight_IsbL-0600_RLatLon0.03_PT023H.grib2 2026-04-28 06:12 629K
20260428T00Z_MSC_CAPS_GeopotentialHeight_IsbL-0650_RLatLon0.03_PT023H.grib2 2026-04-28 06:12 627K
20260428T00Z_MSC_CAPS_GeopotentialHeight_IsbL-0700_RLatLon0.03_PT023H.grib2 2026-04-28 06:12 799K
20260428T00Z_MSC_CAPS_GeopotentialHeight_IsbL-0750_RLatLon0.03_PT023H.grib2 2026-04-28 06:12 800K
20260428T00Z_MSC_CAPS_GeopotentialHeight_IsbL-0800_RLatLon0.03_PT023H.grib2 2026-04-28 06:12 804K
20260428T00Z_MSC_CAPS_GeopotentialHeight_IsbL-0850_RLatLon0.03_PT023H.grib2 2026-04-28 06:12 812K
20260428T00Z_MSC_CAPS_GeopotentialHeight_IsbL-0875_RLatLon0.03_PT023H.grib2 2026-04-28 06:12 900K
20260428T00Z_MSC_CAPS_GeopotentialHeight_IsbL-0900_RLatLon0.03_PT023H.grib2 2026-04-28 06:12 907K
20260428T00Z_MSC_CAPS_GeopotentialHeight_IsbL-0925_RLatLon0.03_PT023H.grib2 2026-04-28 06:12 916K
20260428T00Z_MSC_CAPS_GeopotentialHeight_IsbL-0950_RLatLon0.03_PT023H.grib2 2026-04-28 06:12 929K
20260428T00Z_MSC_CAPS_GeopotentialHeight_IsbL-0970_RLatLon0.03_PT023H.grib2 2026-04-28 06:12 940K
20260428T00Z_MSC_CAPS_GeopotentialHeight_IsbL-0985_RLatLon0.03_PT023H.grib2 2026-04-28 06:12 949K
20260428T00Z_MSC_CAPS_GeopotentialHeight_IsbL-1000_RLatLon0.03_PT023H.grib2 2026-04-28 06:12 959K
20260428T00Z_MSC_CAPS_GeopotentialHeight_IsbL-1015_RLatLon0.03_PT023H.grib2 2026-04-28 06:12 969K
20260428T00Z_MSC_CAPS_GeopotentialHeight_Sfc_RLatLon0.03_PT023H.grib2 2026-04-28 06:12 1.0M
20260428T00Z_MSC_CAPS_IcePellets-Accum_Sfc_RLatLon0.03_PT023H.grib2 2026-04-28 06:12 41K
20260428T00Z_MSC_CAPS_LatentHeatNetFlux_Sfc_RLatLon0.03_PT023H.grib2 2026-04-28 06:12 1.9M
20260428T00Z_MSC_CAPS_LiftedIndex-MU-VT_IsbL-0500_RLatLon0.03_PT023H.grib2 2026-04-28 06:12 3.3M
20260428T00Z_MSC_CAPS_MixedLayerThickness_Sfc_RLatLon0.03_PT023H.nc 2026-04-28 06:11 17M
20260428T00Z_MSC_CAPS_NetLongwaveRadiationFlux-Accum_Sfc_RLatLon0.03_PT023H.grib2 2026-04-28 06:12 3.0M
20260428T00Z_MSC_CAPS_NetShortwaveRadiationFlux-Accum_Sfc_RLatLon0.03_PT023H.grib2 2026-04-28 06:12 3.1M
20260428T00Z_MSC_CAPS_PlanetaryBoundaryLayerHeight_Sfc_RLatLon0.03_PT023H.grib2 2026-04-28 06:12 3.0M
20260428T00Z_MSC_CAPS_Precip-Accum_Sfc_RLatLon0.03_PT023H.grib2 2026-04-28 06:12 4.3M
20260428T00Z_MSC_CAPS_PrecipRate_Sfc_RLatLon0.03_PT023H.grib2 2026-04-28 06:12 547K
20260428T00Z_MSC_CAPS_PrecipType-Instant_Sfc_RLatLon0.03_PT023H.grib2 2026-04-28 06:12 1.8M
20260428T00Z_MSC_CAPS_Pressure_MSL_RLatLon0.03_PT023H.grib2 2026-04-28 06:12 763K
20260428T00Z_MSC_CAPS_Pressure_Sfc_RLatLon0.03_PT023H.grib2 2026-04-28 06:12 1.2M
20260428T00Z_MSC_CAPS_RadiativeTemp_Sfc_RLatLon0.03_PT023H.grib2 2026-04-28 06:12 2.1M
20260428T00Z_MSC_CAPS_Rain-Accum_Sfc_RLatLon0.03_PT023H.grib2 2026-04-28 06:12 1.6M
20260428T00Z_MSC_CAPS_RelativeHumidity_AGL-120m_RLatLon0.03_PT023H.grib2 2026-04-28 06:12 2.8M
20260428T00Z_MSC_CAPS_RelativeHumidity_AGL-2m_RLatLon0.03_PT023H.grib2 2026-04-28 06:12 2.9M
20260428T00Z_MSC_CAPS_RelativeHumidity_AGL-40m_RLatLon0.03_PT023H.grib2 2026-04-28 06:12 2.9M
20260428T00Z_MSC_CAPS_RelativeHumidity_AGL-80m_RLatLon0.03_PT023H.grib2 2026-04-28 06:12 2.8M
20260428T00Z_MSC_CAPS_RelativeHumidity_IsbL-0050_RLatLon0.03_PT023H.grib2 2026-04-28 06:12 1.0M
20260428T00Z_MSC_CAPS_RelativeHumidity_IsbL-0100_RLatLon0.03_PT023H.grib2 2026-04-28 06:12 900K
20260428T00Z_MSC_CAPS_RelativeHumidity_IsbL-0150_RLatLon0.03_PT023H.grib2 2026-04-28 06:12 551K
20260428T00Z_MSC_CAPS_RelativeHumidity_IsbL-0175_RLatLon0.03_PT023H.grib2 2026-04-28 06:12 491K
20260428T00Z_MSC_CAPS_RelativeHumidity_IsbL-0200_RLatLon0.03_PT023H.grib2 2026-04-28 06:12 654K
20260428T00Z_MSC_CAPS_RelativeHumidity_IsbL-0225_RLatLon0.03_PT023H.grib2 2026-04-28 06:12 881K
20260428T00Z_MSC_CAPS_RelativeHumidity_IsbL-0250_RLatLon0.03_PT023H.grib2 2026-04-28 06:12 1.1M
20260428T00Z_MSC_CAPS_RelativeHumidity_IsbL-0275_RLatLon0.03_PT023H.grib2 2026-04-28 06:12 1.4M
20260428T00Z_MSC_CAPS_RelativeHumidity_IsbL-0300_RLatLon0.03_PT023H.grib2 2026-04-28 06:12 1.6M
20260428T00Z_MSC_CAPS_RelativeHumidity_IsbL-0350_RLatLon0.03_PT023H.grib2 2026-04-28 06:12 1.8M
20260428T00Z_MSC_CAPS_RelativeHumidity_IsbL-0400_RLatLon0.03_PT023H.grib2 2026-04-28 06:12 1.9M
20260428T00Z_MSC_CAPS_RelativeHumidity_IsbL-0450_RLatLon0.03_PT023H.grib2 2026-04-28 06:12 2.0M
20260428T00Z_MSC_CAPS_RelativeHumidity_IsbL-0500_RLatLon0.03_PT023H.grib2 2026-04-28 06:12 2.1M
20260428T00Z_MSC_CAPS_RelativeHumidity_IsbL-0550_RLatLon0.03_PT023H.grib2 2026-04-28 06:12 2.1M
20260428T00Z_MSC_CAPS_RelativeHumidity_IsbL-0600_RLatLon0.03_PT023H.grib2 2026-04-28 06:12 2.1M
20260428T00Z_MSC_CAPS_RelativeHumidity_IsbL-0650_RLatLon0.03_PT023H.grib2 2026-04-28 06:12 2.1M
20260428T00Z_MSC_CAPS_RelativeHumidity_IsbL-0700_RLatLon0.03_PT023H.grib2 2026-04-28 06:12 2.2M
20260428T00Z_MSC_CAPS_RelativeHumidity_IsbL-0750_RLatLon0.03_PT023H.grib2 2026-04-28 06:12 2.3M
20260428T00Z_MSC_CAPS_RelativeHumidity_IsbL-0800_RLatLon0.03_PT023H.grib2 2026-04-28 06:12 2.4M
20260428T00Z_MSC_CAPS_RelativeHumidity_IsbL-0850_RLatLon0.03_PT023H.grib2 2026-04-28 06:12 2.5M
20260428T00Z_MSC_CAPS_RelativeHumidity_IsbL-0875_RLatLon0.03_PT023H.grib2 2026-04-28 06:12 2.5M
20260428T00Z_MSC_CAPS_RelativeHumidity_IsbL-0900_RLatLon0.03_PT023H.grib2 2026-04-28 06:12 2.6M
20260428T00Z_MSC_CAPS_RelativeHumidity_IsbL-0925_RLatLon0.03_PT023H.grib2 2026-04-28 06:12 2.6M
20260428T00Z_MSC_CAPS_RelativeHumidity_IsbL-0950_RLatLon0.03_PT023H.grib2 2026-04-28 06:12 2.7M
20260428T00Z_MSC_CAPS_RelativeHumidity_IsbL-0970_RLatLon0.03_PT023H.grib2 2026-04-28 06:12 2.7M
20260428T00Z_MSC_CAPS_RelativeHumidity_IsbL-0985_RLatLon0.03_PT023H.grib2 2026-04-28 06:12 2.8M
20260428T00Z_MSC_CAPS_RelativeHumidity_IsbL-1000_RLatLon0.03_PT023H.grib2 2026-04-28 06:12 2.8M
20260428T00Z_MSC_CAPS_RelativeHumidity_IsbL-1015_RLatLon0.03_PT023H.grib2 2026-04-28 06:12 2.9M
20260428T00Z_MSC_CAPS_Runoff-Accum_Sfc_RLatLon0.03_PT023H.grib2 2026-04-28 06:12 251K
20260428T00Z_MSC_CAPS_SeaIceAreaFraction_Sfc_RLatLon0.03_PT023H.nc 2026-04-28 06:11 15M
20260428T00Z_MSC_CAPS_SeaIceCompressiveStrength_Sfc_RLatLon0.03_PT023H.nc 2026-04-28 06:11 15M
20260428T00Z_MSC_CAPS_SeaIceDivergence_Sfc_RLatLon0.03_PT023H.nc 2026-04-28 06:11 15M
20260428T00Z_MSC_CAPS_SeaIceInternalPressure_Sfc_RLatLon0.03_PT023H.nc 2026-04-28 06:11 15M
20260428T00Z_MSC_CAPS_SeaIceShear_Sfc_RLatLon0.03_PT023H.nc 2026-04-28 06:11 14M
20260428T00Z_MSC_CAPS_SeaIceSnowTemp_Sfc_RLatLon0.03_PT023H.nc 2026-04-28 06:11 15M
20260428T00Z_MSC_CAPS_SeaIceSnowVolume_Sfc_RLatLon0.03_PT023H.nc 2026-04-28 06:11 15M
20260428T00Z_MSC_CAPS_SeaIceVelocityX_Sfc_RLatLon0.03_PT023H.nc 2026-04-28 06:11 15M
20260428T00Z_MSC_CAPS_SeaIceVelocityY_Sfc_RLatLon0.03_PT023H.nc 2026-04-28 06:11 15M
20260428T00Z_MSC_CAPS_SeaIceVolume_Sfc_RLatLon0.03_PT023H.nc 2026-04-28 06:11 15M
20260428T00Z_MSC_CAPS_SeaSurfaceHeight_Sfc_RLatLon0.03_PT023H.nc 2026-04-28 06:11 16M
20260428T00Z_MSC_CAPS_SeaWaterSalinity_DBS-0.5m_RLatLon0.03_PT023H.nc 2026-04-28 06:11 16M
20260428T00Z_MSC_CAPS_SeaWaterSalinity_DBS-all_RLatLon0.03_PT023H.nc 2026-04-28 06:11 107M
20260428T00Z_MSC_CAPS_SeaWaterTemp_DBS-0.5m_RLatLon0.03_PT023H.nc 2026-04-28 06:11 14M
20260428T00Z_MSC_CAPS_SeaWaterTemp_DBS-all_RLatLon0.03_PT023H.nc 2026-04-28 06:11 87M
20260428T00Z_MSC_CAPS_SeaWaterVelocityX_DBS-0.5m_RLatLon0.03_PT023H.nc 2026-04-28 06:11 17M
20260428T00Z_MSC_CAPS_SeaWaterVelocityX_DBS-all_RLatLon0.03_PT023H.nc 2026-04-28 06:11 208M
20260428T00Z_MSC_CAPS_SeaWaterVelocityY_DBS-0.5m_RLatLon0.03_PT023H.nc 2026-04-28 06:11 18M
20260428T00Z_MSC_CAPS_SeaWaterVelocityY_DBS-all_RLatLon0.03_PT023H.nc 2026-04-28 06:11 215M
20260428T00Z_MSC_CAPS_SensibleHeatNetFlux_Sfc_RLatLon0.03_PT023H.grib2 2026-04-28 06:12 2.2M
20260428T00Z_MSC_CAPS_ShowalterIndex_IsbL-0500_RLatLon0.03_PT023H.grib2 2026-04-28 06:12 4.3M
20260428T00Z_MSC_CAPS_Snow-Accum_Sfc_RLatLon0.03_PT023H.grib2 2026-04-28 06:12 3.5M
20260428T00Z_MSC_CAPS_SnowDensity_Sfc_RLatLon0.03_PT023H.grib2 2026-04-28 06:12 1.3M
20260428T00Z_MSC_CAPS_SnowDepthWaterEquivalent_Sfc_RLatLon0.03_PT023H.grib2 2026-04-28 06:12 719K
20260428T00Z_MSC_CAPS_SnowDepth_Sfc_RLatLon0.03_PT023H.grib2 2026-04-28 06:12 1.2M
20260428T00Z_MSC_CAPS_SoilTemp_DBS-0to10cm_RLatLon0.03_PT023H.grib2 2026-04-28 06:12 1.6M
20260428T00Z_MSC_CAPS_SoilTemp_Sfc_RLatLon0.03_PT023H.grib2 2026-04-28 06:12 1.8M
20260428T00Z_MSC_CAPS_SoilVolumetricIceContent_Sfc_RLatLon0.03_PT023H.grib2 2026-04-28 06:12 1.5M
20260428T00Z_MSC_CAPS_SoilVolumetricWaterContent_DBS-0to10cm_RLatLon0.03_PT023H.grib2 2026-04-28 06:12 1.2M
20260428T00Z_MSC_CAPS_SoilVolumetricWaterContent_DBS-0to1cm_RLatLon0.03_PT023H.grib2 2026-04-28 06:12 1.7M
20260428T00Z_MSC_CAPS_SpecificHumidity_AGL-120m_RLatLon0.03_PT023H.grib2 2026-04-28 06:12 1.8M
20260428T00Z_MSC_CAPS_SpecificHumidity_AGL-2m_RLatLon0.03_PT023H.grib2 2026-04-28 06:12 2.0M
20260428T00Z_MSC_CAPS_SpecificHumidity_AGL-40m_RLatLon0.03_PT023H.grib2 2026-04-28 06:12 1.8M
20260428T00Z_MSC_CAPS_SpecificHumidity_AGL-80m_RLatLon0.03_PT023H.grib2 2026-04-28 06:12 1.8M
20260428T00Z_MSC_CAPS_SpecificHumidity_IsbL-0050_RLatLon0.03_PT023H.grib2 2026-04-28 06:12 903K
20260428T00Z_MSC_CAPS_SpecificHumidity_IsbL-0100_RLatLon0.03_PT023H.grib2 2026-04-28 06:12 1.0M
20260428T00Z_MSC_CAPS_SpecificHumidity_IsbL-0150_RLatLon0.03_PT023H.grib2 2026-04-28 06:12 1.0M
20260428T00Z_MSC_CAPS_SpecificHumidity_IsbL-0175_RLatLon0.03_PT023H.grib2 2026-04-28 06:12 743K
20260428T00Z_MSC_CAPS_SpecificHumidity_IsbL-0200_RLatLon0.03_PT023H.grib2 2026-04-28 06:12 865K
20260428T00Z_MSC_CAPS_SpecificHumidity_IsbL-0225_RLatLon0.03_PT023H.grib2 2026-04-28 06:12 1.1M
20260428T00Z_MSC_CAPS_SpecificHumidity_IsbL-0250_RLatLon0.03_PT023H.grib2 2026-04-28 06:12 1.1M
20260428T00Z_MSC_CAPS_SpecificHumidity_IsbL-0275_RLatLon0.03_PT023H.grib2 2026-04-28 06:12 1.1M
20260428T00Z_MSC_CAPS_SpecificHumidity_IsbL-0300_RLatLon0.03_PT023H.grib2 2026-04-28 06:12 1.0M
20260428T00Z_MSC_CAPS_SpecificHumidity_IsbL-0350_RLatLon0.03_PT023H.grib2 2026-04-28 06:12 1.2M
20260428T00Z_MSC_CAPS_SpecificHumidity_IsbL-0400_RLatLon0.03_PT023H.grib2 2026-04-28 06:12 1.1M
20260428T00Z_MSC_CAPS_SpecificHumidity_IsbL-0450_RLatLon0.03_PT023H.grib2 2026-04-28 06:12 1.1M
20260428T00Z_MSC_CAPS_SpecificHumidity_IsbL-0500_RLatLon0.03_PT023H.grib2 2026-04-28 06:12 1.4M
20260428T00Z_MSC_CAPS_SpecificHumidity_IsbL-0550_RLatLon0.03_PT023H.grib2 2026-04-28 06:12 1.2M
20260428T00Z_MSC_CAPS_SpecificHumidity_IsbL-0600_RLatLon0.03_PT023H.grib2 2026-04-28 06:12 1.4M
20260428T00Z_MSC_CAPS_SpecificHumidity_IsbL-0650_RLatLon0.03_PT023H.grib2 2026-04-28 06:12 1.5M
20260428T00Z_MSC_CAPS_SpecificHumidity_IsbL-0700_RLatLon0.03_PT023H.grib2 2026-04-28 06:12 1.6M
20260428T00Z_MSC_CAPS_SpecificHumidity_IsbL-0750_RLatLon0.03_PT023H.grib2 2026-04-28 06:12 1.7M
20260428T00Z_MSC_CAPS_SpecificHumidity_IsbL-0800_RLatLon0.03_PT023H.grib2 2026-04-28 06:12 1.5M
20260428T00Z_MSC_CAPS_SpecificHumidity_IsbL-0850_RLatLon0.03_PT023H.grib2 2026-04-28 06:12 1.6M
20260428T00Z_MSC_CAPS_SpecificHumidity_IsbL-0875_RLatLon0.03_PT023H.grib2 2026-04-28 06:12 1.7M
20260428T00Z_MSC_CAPS_SpecificHumidity_IsbL-0900_RLatLon0.03_PT023H.grib2 2026-04-28 06:12 1.8M
20260428T00Z_MSC_CAPS_SpecificHumidity_IsbL-0925_RLatLon0.03_PT023H.grib2 2026-04-28 06:12 1.8M
20260428T00Z_MSC_CAPS_SpecificHumidity_IsbL-0950_RLatLon0.03_PT023H.grib2 2026-04-28 06:12 2.0M
20260428T00Z_MSC_CAPS_SpecificHumidity_IsbL-0970_RLatLon0.03_PT023H.grib2 2026-04-28 06:12 1.9M
20260428T00Z_MSC_CAPS_SpecificHumidity_IsbL-0985_RLatLon0.03_PT023H.grib2 2026-04-28 06:12 2.0M
20260428T00Z_MSC_CAPS_SpecificHumidity_IsbL-1000_RLatLon0.03_PT023H.grib2 2026-04-28 06:12 2.0M
20260428T00Z_MSC_CAPS_SpecificHumidity_IsbL-1015_RLatLon0.03_PT023H.grib2 2026-04-28 06:12 2.1M
20260428T00Z_MSC_CAPS_SpecificHumidity_Sfc_RLatLon0.03_PT023H.grib2 2026-04-28 06:12 2.5M
20260428T00Z_MSC_CAPS_StormRelativeHelicity_Sfc_RLatLon0.03_PT023H.grib2 2026-04-28 06:12 3.2M
20260428T00Z_MSC_CAPS_Thickness_IsbL-1000to0500_RLatLon0.03_PT023H.grib2 2026-04-28 06:12 428K
20260428T00Z_MSC_CAPS_TotalCloudCover_Sfc_RLatLon0.03_PT023H.grib2 2026-04-28 06:12 3.6M
20260428T00Z_MSC_CAPS_TurboclineDepth_Sfc_RLatLon0.03_PT023H.nc 2026-04-28 06:11 16M
20260428T00Z_MSC_CAPS_UpwardLongwaveRadiationFlux_NTAtm_RLatLon0.03_PT023H.grib2 2026-04-28 06:12 2.9M
20260428T00Z_MSC_CAPS_UpwardShortwaveRadiationFlux_NTAtm_RLatLon0.03_PT023H.grib2 2026-04-28 06:12 2.1M
20260428T00Z_MSC_CAPS_VerticalVelocity_IsbL-0250_RLatLon0.03_PT023H.grib2 2026-04-28 06:12 874K
20260428T00Z_MSC_CAPS_VerticalVelocity_IsbL-0500_RLatLon0.03_PT023H.grib2 2026-04-28 06:12 863K
20260428T00Z_MSC_CAPS_VerticalVelocity_IsbL-0700_RLatLon0.03_PT023H.grib2 2026-04-28 06:12 920K
20260428T00Z_MSC_CAPS_VerticalVelocity_IsbL-0850_RLatLon0.03_PT023H.grib2 2026-04-28 06:12 1.1M
20260428T00Z_MSC_CAPS_VerticalVelocity_IsbL-1000_RLatLon0.03_PT023H.grib2 2026-04-28 06:12 1.1M
20260428T00Z_MSC_CAPS_WindDir_AGL-10m_RLatLon0.03_PT023H.grib2 2026-04-28 06:12 2.4M
20260428T00Z_MSC_CAPS_WindDir_AGL-120m_RLatLon0.03_PT023H.grib2 2026-04-28 06:12 1.3M
20260428T00Z_MSC_CAPS_WindDir_AGL-40m_RLatLon0.03_PT023H.grib2 2026-04-28 06:12 1.4M
20260428T00Z_MSC_CAPS_WindDir_AGL-80m_RLatLon0.03_PT023H.grib2 2026-04-28 06:12 1.3M
20260428T00Z_MSC_CAPS_WindDir_IsbL-0050_RLatLon0.03_PT023H.grib2 2026-04-28 06:12 1.0M
20260428T00Z_MSC_CAPS_WindDir_IsbL-0100_RLatLon0.03_PT023H.grib2 2026-04-28 06:12 1.0M
20260428T00Z_MSC_CAPS_WindDir_IsbL-0150_RLatLon0.03_PT023H.grib2 2026-04-28 06:12 1.0M
20260428T00Z_MSC_CAPS_WindDir_IsbL-0175_RLatLon0.03_PT023H.grib2 2026-04-28 06:12 1.1M
20260428T00Z_MSC_CAPS_WindDir_IsbL-0200_RLatLon0.03_PT023H.grib2 2026-04-28 06:12 1.1M
20260428T00Z_MSC_CAPS_WindDir_IsbL-0225_RLatLon0.03_PT023H.grib2 2026-04-28 06:12 1.1M
20260428T00Z_MSC_CAPS_WindDir_IsbL-0250_RLatLon0.03_PT023H.grib2 2026-04-28 06:12 1.1M
20260428T00Z_MSC_CAPS_WindDir_IsbL-0275_RLatLon0.03_PT023H.grib2 2026-04-28 06:12 1.1M
20260428T00Z_MSC_CAPS_WindDir_IsbL-0300_RLatLon0.03_PT023H.grib2 2026-04-28 06:12 1.1M
20260428T00Z_MSC_CAPS_WindDir_IsbL-0350_RLatLon0.03_PT023H.grib2 2026-04-28 06:12 1.1M
20260428T00Z_MSC_CAPS_WindDir_IsbL-0400_RLatLon0.03_PT023H.grib2 2026-04-28 06:12 1.1M
20260428T00Z_MSC_CAPS_WindDir_IsbL-0450_RLatLon0.03_PT023H.grib2 2026-04-28 06:12 1.2M
20260428T00Z_MSC_CAPS_WindDir_IsbL-0500_RLatLon0.03_PT023H.grib2 2026-04-28 06:12 1.3M
20260428T00Z_MSC_CAPS_WindDir_IsbL-0550_RLatLon0.03_PT023H.grib2 2026-04-28 06:12 1.2M
20260428T00Z_MSC_CAPS_WindDir_IsbL-0600_RLatLon0.03_PT023H.grib2 2026-04-28 06:12 1.3M
20260428T00Z_MSC_CAPS_WindDir_IsbL-0650_RLatLon0.03_PT023H.grib2 2026-04-28 06:12 1.3M
20260428T00Z_MSC_CAPS_WindDir_IsbL-0700_RLatLon0.03_PT023H.grib2 2026-04-28 06:12 1.4M
20260428T00Z_MSC_CAPS_WindDir_IsbL-0750_RLatLon0.03_PT023H.grib2 2026-04-28 06:12 1.5M
20260428T00Z_MSC_CAPS_WindDir_IsbL-0800_RLatLon0.03_PT023H.grib2 2026-04-28 06:12 1.6M
20260428T00Z_MSC_CAPS_WindDir_IsbL-0850_RLatLon0.03_PT023H.grib2 2026-04-28 06:12 1.8M
20260428T00Z_MSC_CAPS_WindDir_IsbL-0875_RLatLon0.03_PT023H.grib2 2026-04-28 06:12 1.9M
20260428T00Z_MSC_CAPS_WindDir_IsbL-0900_RLatLon0.03_PT023H.grib2 2026-04-28 06:12 2.0M
20260428T00Z_MSC_CAPS_WindDir_IsbL-0925_RLatLon0.03_PT023H.grib2 2026-04-28 06:12 2.1M
20260428T00Z_MSC_CAPS_WindDir_IsbL-0950_RLatLon0.03_PT023H.grib2 2026-04-28 06:12 2.1M
20260428T00Z_MSC_CAPS_WindDir_IsbL-0970_RLatLon0.03_PT023H.grib2 2026-04-28 06:12 2.2M
20260428T00Z_MSC_CAPS_WindDir_IsbL-0985_RLatLon0.03_PT023H.grib2 2026-04-28 06:12 2.2M
20260428T00Z_MSC_CAPS_WindDir_IsbL-1000_RLatLon0.03_PT023H.grib2 2026-04-28 06:12 2.3M
20260428T00Z_MSC_CAPS_WindDir_IsbL-1015_RLatLon0.03_PT023H.grib2 2026-04-28 06:12 2.4M
20260428T00Z_MSC_CAPS_WindGust-Max_AGL-10m_RLatLon0.03_PT023H.grib2 2026-04-28 06:12 2.4M
20260428T00Z_MSC_CAPS_WindGust-Min_AGL-10m_RLatLon0.03_PT023H.grib2 2026-04-28 06:12 2.5M
20260428T00Z_MSC_CAPS_WindGust_AGL-10m_RLatLon0.03_PT023H.grib2 2026-04-28 06:12 2.5M
20260428T00Z_MSC_CAPS_WindSpeed_AGL-10m_RLatLon0.03_PT023H.grib2 2026-04-28 06:12 2.1M
20260428T00Z_MSC_CAPS_WindSpeed_AGL-120m_RLatLon0.03_PT023H.grib2 2026-04-28 06:12 1.2M
20260428T00Z_MSC_CAPS_WindSpeed_AGL-40m_RLatLon0.03_PT023H.grib2 2026-04-28 06:12 1.2M
20260428T00Z_MSC_CAPS_WindSpeed_AGL-80m_RLatLon0.03_PT023H.grib2 2026-04-28 06:12 1.2M
20260428T00Z_MSC_CAPS_WindSpeed_IsbL-0050_RLatLon0.03_PT023H.grib2 2026-04-28 06:12 1.0M
20260428T00Z_MSC_CAPS_WindSpeed_IsbL-0100_RLatLon0.03_PT023H.grib2 2026-04-28 06:12 1.0M
20260428T00Z_MSC_CAPS_WindSpeed_IsbL-0150_RLatLon0.03_PT023H.grib2 2026-04-28 06:12 1.1M
20260428T00Z_MSC_CAPS_WindSpeed_IsbL-0175_RLatLon0.03_PT023H.grib2 2026-04-28 06:12 1.1M
20260428T00Z_MSC_CAPS_WindSpeed_IsbL-0200_RLatLon0.03_PT023H.grib2 2026-04-28 06:12 1.2M
20260428T00Z_MSC_CAPS_WindSpeed_IsbL-0225_RLatLon0.03_PT023H.grib2 2026-04-28 06:12 942K
20260428T00Z_MSC_CAPS_WindSpeed_IsbL-0250_RLatLon0.03_PT023H.grib2 2026-04-28 06:12 960K
20260428T00Z_MSC_CAPS_WindSpeed_IsbL-0275_RLatLon0.03_PT023H.grib2 2026-04-28 06:12 966K
20260428T00Z_MSC_CAPS_WindSpeed_IsbL-0300_RLatLon0.03_PT023H.grib2 2026-04-28 06:12 1.0M
20260428T00Z_MSC_CAPS_WindSpeed_IsbL-0350_RLatLon0.03_PT023H.grib2 2026-04-28 06:12 1.0M
20260428T00Z_MSC_CAPS_WindSpeed_IsbL-0400_RLatLon0.03_PT023H.grib2 2026-04-28 06:12 1.0M
20260428T00Z_MSC_CAPS_WindSpeed_IsbL-0450_RLatLon0.03_PT023H.grib2 2026-04-28 06:12 1.0M
20260428T00Z_MSC_CAPS_WindSpeed_IsbL-0500_RLatLon0.03_PT023H.grib2 2026-04-28 06:12 1.4M
20260428T00Z_MSC_CAPS_WindSpeed_IsbL-0550_RLatLon0.03_PT023H.grib2 2026-04-28 06:12 1.2M
20260428T00Z_MSC_CAPS_WindSpeed_IsbL-0600_RLatLon0.03_PT023H.grib2 2026-04-28 06:12 1.3M
20260428T00Z_MSC_CAPS_WindSpeed_IsbL-0650_RLatLon0.03_PT023H.grib2 2026-04-28 06:12 1.4M
20260428T00Z_MSC_CAPS_WindSpeed_IsbL-0700_RLatLon0.03_PT023H.grib2 2026-04-28 06:12 1.5M
20260428T00Z_MSC_CAPS_WindSpeed_IsbL-0750_RLatLon0.03_PT023H.grib2 2026-04-28 06:12 1.5M
20260428T00Z_MSC_CAPS_WindSpeed_IsbL-0800_RLatLon0.03_PT023H.grib2 2026-04-28 06:12 1.6M
20260428T00Z_MSC_CAPS_WindSpeed_IsbL-0850_RLatLon0.03_PT023H.grib2 2026-04-28 06:12 1.6M
20260428T00Z_MSC_CAPS_WindSpeed_IsbL-0875_RLatLon0.03_PT023H.grib2 2026-04-28 06:12 1.7M
20260428T00Z_MSC_CAPS_WindSpeed_IsbL-0900_RLatLon0.03_PT023H.grib2 2026-04-28 06:12 1.7M
20260428T00Z_MSC_CAPS_WindSpeed_IsbL-0925_RLatLon0.03_PT023H.grib2 2026-04-28 06:12 1.8M
20260428T00Z_MSC_CAPS_WindSpeed_IsbL-0950_RLatLon0.03_PT023H.grib2 2026-04-28 06:12 1.8M
20260428T00Z_MSC_CAPS_WindSpeed_IsbL-0970_RLatLon0.03_PT023H.grib2 2026-04-28 06:12 2.0M
20260428T00Z_MSC_CAPS_WindSpeed_IsbL-0985_RLatLon0.03_PT023H.grib2 2026-04-28 06:12 2.0M
20260428T00Z_MSC_CAPS_WindSpeed_IsbL-1000_RLatLon0.03_PT023H.grib2 2026-04-28 06:12 2.0M
20260428T00Z_MSC_CAPS_WindSpeed_IsbL-1015_RLatLon0.03_PT023H.grib2 2026-04-28 06:12 2.1M
20260428T00Z_MSC_CAPS_WindU_AGL-10m_RLatLon0.03_PT023H.grib2 2026-04-28 06:12 1.9M
20260428T00Z_MSC_CAPS_WindU_AGL-120m_RLatLon0.03_PT023H.grib2 2026-04-28 06:12 895K
20260428T00Z_MSC_CAPS_WindU_AGL-40m_RLatLon0.03_PT023H.grib2 2026-04-28 06:12 922K
20260428T00Z_MSC_CAPS_WindU_AGL-80m_RLatLon0.03_PT023H.grib2 2026-04-28 06:12 898K
20260428T00Z_MSC_CAPS_WindU_IsbL-0050_RLatLon0.03_PT023H.grib2 2026-04-28 06:12 939K
20260428T00Z_MSC_CAPS_WindU_IsbL-0100_RLatLon0.03_PT023H.grib2 2026-04-28 06:12 887K
20260428T00Z_MSC_CAPS_WindU_IsbL-0150_RLatLon0.03_PT023H.grib2 2026-04-28 06:12 710K
20260428T00Z_MSC_CAPS_WindU_IsbL-0175_RLatLon0.03_PT023H.grib2 2026-04-28 06:12 846K
20260428T00Z_MSC_CAPS_WindU_IsbL-0200_RLatLon0.03_PT023H.grib2 2026-04-28 06:12 863K
20260428T00Z_MSC_CAPS_WindU_IsbL-0225_RLatLon0.03_PT023H.grib2 2026-04-28 06:12 884K
20260428T00Z_MSC_CAPS_WindU_IsbL-0250_RLatLon0.03_PT023H.grib2 2026-04-28 06:12 903K
20260428T00Z_MSC_CAPS_WindU_IsbL-0275_RLatLon0.03_PT023H.grib2 2026-04-28 06:12 703K
20260428T00Z_MSC_CAPS_WindU_IsbL-0300_RLatLon0.03_PT023H.grib2 2026-04-28 06:12 710K
20260428T00Z_MSC_CAPS_WindU_IsbL-0350_RLatLon0.03_PT023H.grib2 2026-04-28 06:12 930K
20260428T00Z_MSC_CAPS_WindU_IsbL-0400_RLatLon0.03_PT023H.grib2 2026-04-28 06:12 933K
20260428T00Z_MSC_CAPS_WindU_IsbL-0450_RLatLon0.03_PT023H.grib2 2026-04-28 06:12 954K
20260428T00Z_MSC_CAPS_WindU_IsbL-0500_RLatLon0.03_PT023H.grib2 2026-04-28 06:12 1.0M
20260428T00Z_MSC_CAPS_WindU_IsbL-0550_RLatLon0.03_PT023H.grib2 2026-04-28 06:12 902K
20260428T00Z_MSC_CAPS_WindU_IsbL-0600_RLatLon0.03_PT023H.grib2 2026-04-28 06:12 923K
20260428T00Z_MSC_CAPS_WindU_IsbL-0650_RLatLon0.03_PT023H.grib2 2026-04-28 06:12 949K
20260428T00Z_MSC_CAPS_WindU_IsbL-0700_RLatLon0.03_PT023H.grib2 2026-04-28 06:12 1.0M
20260428T00Z_MSC_CAPS_WindU_IsbL-0750_RLatLon0.03_PT023H.grib2 2026-04-28 06:12 1.0M
20260428T00Z_MSC_CAPS_WindU_IsbL-0800_RLatLon0.03_PT023H.grib2 2026-04-28 06:12 1.1M
20260428T00Z_MSC_CAPS_WindU_IsbL-0850_RLatLon0.03_PT023H.grib2 2026-04-28 06:12 1.3M
20260428T00Z_MSC_CAPS_WindU_IsbL-0875_RLatLon0.03_PT023H.grib2 2026-04-28 06:12 1.3M
20260428T00Z_MSC_CAPS_WindU_IsbL-0900_RLatLon0.03_PT023H.grib2 2026-04-28 06:12 1.3M
20260428T00Z_MSC_CAPS_WindU_IsbL-0925_RLatLon0.03_PT023H.grib2 2026-04-28 06:12 1.4M
20260428T00Z_MSC_CAPS_WindU_IsbL-0950_RLatLon0.03_PT023H.grib2 2026-04-28 06:12 1.3M
20260428T00Z_MSC_CAPS_WindU_IsbL-0970_RLatLon0.03_PT023H.grib2 2026-04-28 06:12 1.4M
20260428T00Z_MSC_CAPS_WindU_IsbL-0985_RLatLon0.03_PT023H.grib2 2026-04-28 06:12 1.4M
20260428T00Z_MSC_CAPS_WindU_IsbL-1000_RLatLon0.03_PT023H.grib2 2026-04-28 06:12 1.8M
20260428T00Z_MSC_CAPS_WindU_IsbL-1015_RLatLon0.03_PT023H.grib2 2026-04-28 06:12 1.8M
20260428T00Z_MSC_CAPS_WindV_AGL-10m_RLatLon0.03_PT023H.grib2 2026-04-28 06:12 1.9M
20260428T00Z_MSC_CAPS_WindV_AGL-120m_RLatLon0.03_PT023H.grib2 2026-04-28 06:12 1.1M
20260428T00Z_MSC_CAPS_WindV_AGL-40m_RLatLon0.03_PT023H.grib2 2026-04-28 06:12 1.2M
20260428T00Z_MSC_CAPS_WindV_AGL-80m_RLatLon0.03_PT023H.grib2 2026-04-28 06:12 1.2M
20260428T00Z_MSC_CAPS_WindV_IsbL-0050_RLatLon0.03_PT023H.grib2 2026-04-28 06:12 944K
20260428T00Z_MSC_CAPS_WindV_IsbL-0100_RLatLon0.03_PT023H.grib2 2026-04-28 06:12 803K
20260428T00Z_MSC_CAPS_WindV_IsbL-0150_RLatLon0.03_PT023H.grib2 2026-04-28 06:12 913K
20260428T00Z_MSC_CAPS_WindV_IsbL-0175_RLatLon0.03_PT023H.grib2 2026-04-28 06:12 718K
20260428T00Z_MSC_CAPS_WindV_IsbL-0200_RLatLon0.03_PT023H.grib2 2026-04-28 06:12 859K
20260428T00Z_MSC_CAPS_WindV_IsbL-0225_RLatLon0.03_PT023H.grib2 2026-04-28 06:12 877K
20260428T00Z_MSC_CAPS_WindV_IsbL-0250_RLatLon0.03_PT023H.grib2 2026-04-28 06:12 903K
20260428T00Z_MSC_CAPS_WindV_IsbL-0275_RLatLon0.03_PT023H.grib2 2026-04-28 06:12 909K
20260428T00Z_MSC_CAPS_WindV_IsbL-0300_RLatLon0.03_PT023H.grib2 2026-04-28 06:12 918K
20260428T00Z_MSC_CAPS_WindV_IsbL-0350_RLatLon0.03_PT023H.grib2 2026-04-28 06:12 931K
20260428T00Z_MSC_CAPS_WindV_IsbL-0400_RLatLon0.03_PT023H.grib2 2026-04-28 06:12 937K
20260428T00Z_MSC_CAPS_WindV_IsbL-0450_RLatLon0.03_PT023H.grib2 2026-04-28 06:12 957K
20260428T00Z_MSC_CAPS_WindV_IsbL-0500_RLatLon0.03_PT023H.grib2 2026-04-28 06:12 1.0M
20260428T00Z_MSC_CAPS_WindV_IsbL-0550_RLatLon0.03_PT023H.grib2 2026-04-28 06:12 900K
20260428T00Z_MSC_CAPS_WindV_IsbL-0600_RLatLon0.03_PT023H.grib2 2026-04-28 06:12 922K
20260428T00Z_MSC_CAPS_WindV_IsbL-0650_RLatLon0.03_PT023H.grib2 2026-04-28 06:12 1.2M
20260428T00Z_MSC_CAPS_WindV_IsbL-0700_RLatLon0.03_PT023H.grib2 2026-04-28 06:12 1.2M
20260428T00Z_MSC_CAPS_WindV_IsbL-0750_RLatLon0.03_PT023H.grib2 2026-04-28 06:12 1.3M
20260428T00Z_MSC_CAPS_WindV_IsbL-0800_RLatLon0.03_PT023H.grib2 2026-04-28 06:12 1.4M
20260428T00Z_MSC_CAPS_WindV_IsbL-0850_RLatLon0.03_PT023H.grib2 2026-04-28 06:12 1.5M
20260428T00Z_MSC_CAPS_WindV_IsbL-0875_RLatLon0.03_PT023H.grib2 2026-04-28 06:12 1.5M
20260428T00Z_MSC_CAPS_WindV_IsbL-0900_RLatLon0.03_PT023H.grib2 2026-04-28 06:12 1.6M
20260428T00Z_MSC_CAPS_WindV_IsbL-0925_RLatLon0.03_PT023H.grib2 2026-04-28 06:12 1.6M
20260428T00Z_MSC_CAPS_WindV_IsbL-0950_RLatLon0.03_PT023H.grib2 2026-04-28 06:12 1.7M
20260428T00Z_MSC_CAPS_WindV_IsbL-0970_RLatLon0.03_PT023H.grib2 2026-04-28 06:12 1.7M
20260428T00Z_MSC_CAPS_WindV_IsbL-0985_RLatLon0.03_PT023H.grib2 2026-04-28 06:12 1.9M
20260428T00Z_MSC_CAPS_WindV_IsbL-1000_RLatLon0.03_PT023H.grib2 2026-04-28 06:12 1.9M
20260428T00Z_MSC_CAPS_WindV_IsbL-1015_RLatLon0.03_PT023H.grib2 2026-04-28 06:12 2.0M